User: anonymous   Login
Location: Hylvaty SDH
(49.9612°N, 16.4057°E)
Time: 17:16:53
(UTC+02:00)
Language:

Transit 2A Rocket - Orbit

View from above orbital plane
View from above orbital plane
View from above satellite
View from above satellite

Ground track
Ground track

The orbit data is extracted from the following two-line orbital elements,

1    47U 60007C   20221.85416795 -.00000053 +00000-0 +13425-4 0  9994
2    47 066.6667 014.8875 0235424 265.0707 092.3485 14.42095801142237
Epoch (UTC): 08 August 2020 20:30:00
Eccentricity: 0.0235424
inclination: 66.6667°
perigee height: 584 km
apogee height: 919 km
right ascension of ascending node: 14.8875°
argument of perigee: 265.0707°
revolutions per day: 14.42095801
mean anomaly at epoch: 92.3485°
orbit number at epoch: 14223

The dashed part of the orbit path shows where the satellite is in the earth's shadow,  

DLR